Location: 22
(39.7117°N, 89.5929°W)
Time: 18:08:14
(UTC-06:00)

Envisat - Visible Passes

Search period start: 30 November 2022 00:00
Search period end: 10 December 2022 00:00
Orbit: 763 x 765 km, 98.2° (Epoch: 30 November)

Date Brightness Start Highest point End Pass type
(mag) Time Alt. Az. Time Alt. Az. Time Alt. Az.
30 Nov 5.1 05:16:29 10° NNW 05:16:44 11° NNW 05:16:44 11° NNW visible
01 Dec 5.3 04:38:52 10° N 04:39:07 11° N 04:39:07 11° N visible
02 Dec 6.4 16:58:54 10° W 16:59:54 11° W 17:00:54 10° WNW visible
